Weather History for Paris, IL

Change the Weather History Date:

Thursday, August 1, 2013

  Actual Average (KHUF) Record (KHUF)
Temperature  
Mean Temperature 70 °F 74 °F  
Max Temperature 81 °F 85 °F 96 °F (2012)
Min Temperature 59 °F 63 °F 49 °F (1992)
Degree Days  
Heating Degree Days 0 0  
Month to date heating degree days 0  
Since 1 June heating degree days 14  
Since 1 July heating degree days 1  
Cooling Degree Days 5 9  
Month to date cooling degree days 9  
Year to date cooling degree days 641  
Since 1 June cooling degree days 555  
Growing Degree Days 20 (Base 50)    
Moisture  
Dew Point 62 °F    
Average Humidity 80    
Maximum Humidity 100    
Minimum Humidity 48    
Precipitation  
Precipitation 0.02 in 0.13 in 0.79 in (1968)
Month to date precipitation 0.13  
Year to date precipitation 27.80  
Sea Level Pressure  
Sea Level Pressure 30.02 in    
Wind  
Wind Speed 4 mph (WNW)    
Max Wind Speed 13 mph    
Max Gust Speed 20 mph    
Visibility 7 miles    
Events Fog    
T = Trace of Precipitation, MM = Missing Value Source: NWS Daily Summary

Daily Weather History Graph

Daily Weather History Graph

Search for Another Location

Airport:

Trip Planner

Search our weather history database for the weather conditions in past years. The results will help you decide how hot, cold, wet, or windy it might be!

Date:

Astronomy

Aug. 01, 2013 Rise Set
Actual Time 5:50 AM CDT 8:03 PM CDT
Civil Twilight 5:19 AM CDT 8:33 PM CDT
Nautical Twilight 4:42 AM CDT 9:10 PM CDT
Astronomical Twilight 4:02 AM CDT 9:50 PM CDT
Moon 1:26 AM CDT (8/1) 4:11 PM CDT (8/1)
Length of Visible Light 15h 13m
Length of Day
14h 13m
Waning Crescent, 23% of the Moon is Illuminated
Aug 1
Waning Crescent
Aug 6
New
Aug 14
First Quarter
Aug 20
Full
Aug 28
Last Quarter

Hourly Weather History & Observations

Time (CDT) Temp. Heat Index Dew Point Humidity Pressure Visibility Wind Dir Wind Speed Gust Speed Precip Events Conditions
12:15 AM 64.4 °F - 64.0 °F 99% 30.02 in 4.0 mi Calm Calm - N/A   Clear
12:35 AM 63.5 °F - 63.1 °F 99% 30.01 in 3.0 mi Calm Calm - N/A   Clear
12:55 AM 63.5 °F - 63.3 °F 99% 30.01 in 3.0 mi NW 3.5 mph - N/A   Clear
1:15 AM 63.0 °F - 62.8 °F 99% 30.01 in 3.0 mi Calm Calm - N/A   Clear
1:35 AM 62.6 °F - 62.4 °F 99% 30.01 in 2.0 mi Calm Calm - N/A   Clear
1:55 AM 62.1 °F - 61.9 °F 99% 30.00 in 1.5 mi West 3.5 mph - N/A   Mist
2:15 AM 61.7 °F - 61.5 °F 99% 30.00 in 1.5 mi West 4.6 mph - N/A   Scattered Clouds
2:35 AM 61.7 °F - 61.7 °F 100% 30.00 in 0.5 mi West 3.5 mph - N/A Fog Fog
2:55 AM 61.2 °F - 61.2 °F 100% 30.00 in 1.8 mi West 3.5 mph - N/A   Mist
3:15 AM 61.5 °F - 61.5 °F 100% 30.00 in 2.0 mi West 3.5 mph - N/A   Mist
3:35 AM 61.7 °F - 61.7 °F 100% 30.00 in 2.5 mi West 3.5 mph - N/A   Overcast
3:55 AM 62.1 °F - 62.1 °F 100% 30.00 in 3.0 mi West 3.5 mph - N/A   Overcast
4:15 AM 61.7 °F - 61.7 °F 100% 30.00 in 3.0 mi West 4.6 mph - N/A   Mist
4:35 AM 61.2 °F - 61.2 °F 100% 30.01 in 2.5 mi West 3.5 mph - N/A   Mist
4:55 AM 60.8 °F - 60.8 °F 100% 30.01 in 2.0 mi Calm Calm - N/A   Mist
5:15 AM 60.3 °F - 60.3 °F 100% 30.02 in 1.8 mi Calm Calm - N/A   Mist
5:35 AM 59.9 °F - 59.9 °F 100% 30.02 in 1.8 mi West 3.5 mph - N/A   Mist
5:55 AM 60.3 °F - 60.3 °F 100% 30.02 in 1.5 mi West 4.6 mph - N/A   Mist
6:15 AM 60.8 °F - 60.8 °F 100% 30.02 in 2.0 mi WNW 3.5 mph - N/A   Clear
6:35 AM 62.6 °F - 62.6 °F 100% 30.02 in 2.5 mi WNW 4.6 mph - N/A   Clear
6:55 AM 63.5 °F - 63.5 °F 100% 30.03 in 2.5 mi WNW 6.9 mph - N/A   Clear
7:15 AM 64.2 °F - 64.2 °F 100% 30.03 in 3.0 mi WNW 5.8 mph - N/A   Clear
7:35 AM 65.3 °F - 65.3 °F 100% 30.03 in 4.0 mi NW 5.8 mph - N/A   Clear
7:55 AM 66.4 °F - 66.4 °F 100% 30.04 in 5.0 mi NW 5.8 mph - N/A   Clear
8:15 AM 67.8 °F - 67.8 °F 100% 30.04 in 7.0 mi WNW 4.6 mph - N/A   Clear
8:35 AM 69.8 °F - 69.1 °F 98% 30.05 in 10.0 mi NW 3.5 mph - N/A   Clear
8:55 AM 71.1 °F - 68.9 °F 93% 30.05 in 10.0 mi NW 3.5 mph - N/A   Clear
9:15 AM 72.7 °F - 69.6 °F 90% 30.05 in 10.0 mi NW 3.5 mph - N/A   Clear
9:35 AM 74.3 °F - 66.9 °F 78% 30.05 in 10.0 mi WNW 5.8 mph - N/A   Clear
9:55 AM 75.2 °F - 67.3 °F 76% 30.06 in 10.0 mi NW 4.6 mph - N/A   Clear
10:15 AM 76.1 °F - 67.1 °F 74% 30.05 in 10.0 mi NNW 8.1 mph - N/A   Clear
10:35 AM 77.2 °F - 66.9 °F 71% 30.05 in 10.0 mi North 6.9 mph - N/A   Scattered Clouds
10:55 AM 77.5 °F - 66.2 °F 68% 30.05 in 10.0 mi NW 8.1 mph - N/A   Clear
11:15 AM 78.4 °F - 66.2 °F 66% 30.05 in 10.0 mi NW 8.1 mph - N/A   Clear
11:35 AM 79.0 °F - 62.4 °F 57% 30.05 in 10.0 mi NW 9.2 mph - N/A   Clear
11:55 AM 79.7 °F - 61.9 °F 54% 30.05 in 10.0 mi NNW 8.1 mph - N/A   Clear
12:15 PM 79.9 °F - 61.0 °F 52% 30.05 in 10.0 mi WNW 10.4 mph 17.3 mph N/A   Clear
12:35 PM 79.7 °F - 60.1 °F 51% 30.05 in 10.0 mi NNW 9.2 mph - N/A   Clear
12:55 PM 80.6 °F 81.4 °F 60.3 °F 50% 30.05 in 10.0 mi NW 10.4 mph - N/A   Scattered Clouds
1:15 PM 80.8 °F 81.5 °F 60.6 °F 50% 30.04 in 10.0 mi NW 9.2 mph 19.6 mph N/A   Clear
1:35 PM 80.8 °F 81.3 °F 59.4 °F 48% 30.04 in 10.0 mi NNW 10.4 mph - N/A   Scattered Clouds
1:55 PM 80.2 °F 81.1 °F 60.4 °F 51% 30.04 in 10.0 mi NW 6.9 mph - N/A   Scattered Clouds
2:15 PM 81.0 °F 81.8 °F 61.5 °F 51% 30.04 in 10.0 mi WNW 9.2 mph - N/A   Scattered Clouds
2:35 PM 80.2 °F 81.2 °F 61.0 °F 52% 30.03 in 10.0 mi WNW 10.4 mph - N/A   Mostly Cloudy
2:55 PM 81.3 °F 81.8 °F 59.9 °F 48% 30.03 in 10.0 mi WNW 12.7 mph 17.3 mph N/A   Scattered Clouds
3:15 PM 81.3 °F 82.3 °F 61.9 °F 52% 30.03 in 10.0 mi WNW 11.5 mph - N/A   Scattered Clouds
3:35 PM 79.9 °F - 60.3 °F 51% 30.02 in 10.0 mi WNW 8.1 mph 18.4 mph N/A   Scattered Clouds
3:55 PM 80.6 °F 81.6 °F 61.3 °F 52% 30.02 in 10.0 mi West 12.7 mph 18.4 mph N/A   Clear
4:15 PM 79.7 °F - 60.6 °F 52% 30.02 in 10.0 mi WNW 8.1 mph - N/A   Scattered Clouds
4:35 PM 80.2 °F 81.1 °F 60.8 °F 51% 30.02 in 10.0 mi WNW 9.2 mph - N/A   Scattered Clouds
4:55 PM 79.2 °F - 60.6 °F 53% 30.01 in 10.0 mi West 12.7 mph - N/A   Scattered Clouds
5:15 PM 80.1 °F 80.7 °F 58.8 °F 48% 30.01 in 10.0 mi NW 12.7 mph - N/A   Mostly Cloudy
5:35 PM 79.7 °F - 59.5 °F 50% 30.00 in 10.0 mi WNW 11.5 mph 18.4 mph N/A   Scattered Clouds
5:55 PM 79.2 °F - 60.3 °F 52% 29.99 in 10.0 mi WNW 10.4 mph - N/A   Clear
6:15 PM 78.8 °F - 60.8 °F 54% 29.99 in 10.0 mi WNW 6.9 mph - N/A   Clear
6:35 PM 77.0 °F - 62.4 °F 61% 29.99 in 10.0 mi WNW 5.8 mph - N/A   Clear
6:55 PM 75.7 °F - 63.7 °F 66% 29.99 in 10.0 mi West 4.6 mph - N/A   Clear
7:15 PM 75.2 °F - 63.5 °F 67% 30.00 in 10.0 mi West 5.8 mph - N/A   Clear
7:35 PM 73.0 °F - 63.0 °F 71% 30.00 in 10.0 mi WNW 3.5 mph - N/A   Clear
7:55 PM 70.3 °F - 63.3 °F 78% 30.00 in 10.0 mi WNW 4.6 mph - N/A   Clear
8:15 PM 67.6 °F - 63.9 °F 88% 30.00 in 10.0 mi Calm Calm - N/A   Clear
8:35 PM 66.6 °F - 63.1 °F 89% 30.00 in 10.0 mi Calm Calm - N/A   Clear
8:55 PM 64.9 °F - 62.4 °F 92% 30.00 in 10.0 mi West 3.5 mph - N/A   Clear
9:15 PM 65.5 °F - 62.1 °F 89% 30.01 in 10.0 mi West 3.5 mph - N/A   Clear
9:35 PM 65.1 °F - 62.2 °F 90% 30.01 in 10.0 mi Calm Calm - N/A   Clear
9:55 PM 65.3 °F - 61.5 °F 88% 30.02 in 10.0 mi Calm Calm - N/A   Clear
10:15 PM 63.7 °F - 61.0 °F 91% 30.02 in 10.0 mi Calm Calm - N/A   Clear
10:35 PM 64.6 °F - 61.0 °F 88% 30.01 in 10.0 mi Calm Calm - N/A   Clear
10:55 PM 61.7 °F - 59.9 °F 94% 30.01 in 10.0 mi Calm Calm - N/A   Clear
11:15 PM 60.8 °F - 59.5 °F 96% 30.02 in 10.0 mi Calm Calm - N/A   Clear
11:35 PM 60.4 °F - 59.5 °F 97% 30.02 in 10.0 mi Calm Calm - N/A   Clear
11:55 PM 60.1 °F - 59.2 °F 97% 30.02 in 10.0 mi Calm Calm - N/A   Clear